Location: Ffald-y-Brenin
(52.0833°N, 4.0000°W)
Time: 09:27:12
(UTC+00:00)

Cosmos 2016 Rocket - Pass Details

Date: 18 February 2020
Orbit: 948 x 999 km, 83.0° (Epoch: 08 April)

Event Time Altitude Azimuth Distance (km) Brightness Sun altitude
Rises 06:19:49 0° 347° (NNW) 3,665 6.8 -10.8°
Reaches altitude 10° 06:22:21 10° 344° (NNW) 2,721 6.1 -10.4°
Maximum altitude 06:28:27 60° 267° (W) 1,117 4.0 -9.5°
Drops below altitude 10° 06:34:36 10° 189° (S) 2,738 6.4 -8.6°
Sets 06:37:09 0° 186° (S) 3,689 7.1 -8.2°
